COSMOS 249 DEB, 14410

Orbit data source: Space-Track

COSMOS 249 DEB, 14410 is space debris in LEO originally from a launch on Sun, 20 Oct 1968 UTC launched from the Tyuratam Missile And Space Complex (TTMTR). Debris objects in space refer to the collection of defunct objects orbiting the Earth. Examples of debris include non-operational satellites, rocket bodies, and fragments generated from explosions, collisions, or faulty payload assembly.

Loading next visibility...
Identifier
14410, 1968-091CL
Orbit
LEO
Country
Flag of CISCIS
Related business
Manufacturer
Unknown
Mission
Spacecraft
Bus & Motor
Unknown
Mass
Unknown
Launch date (UTC)
1968-10-20 (58 years ago)
Launch vehicle
Unknown
Launch site
Tyuratam Missile And Space Complex (TTMTR)
Object type
Payload
Rocket body
Debris
Shape & HBR
Unknown shape, 0.1 m
Radar Cross Section
Medium (>0.1 m² and <1 m²)

Expand to show TLE details & history
Last TLE update: 2 days ago

TLE from 2 days ago
0 COSMOS 249 DEB
1 14410U 68091CL  26170.58812640  .00003984  00000-0  14147-2 0  9997
2 14410  62.2048 225.5567 0300785 294.7275 218.0359 14.13467913104513
Epoch: 2026-06-19T14:06Z
TLE epoch observation values (Epoch: 2026-06-19T14:06:54.120Z)
Latitude
25.70312°
Longitude
-88.60472°
Altitude
1,023.036 km
Speed
7.254 km/s
True Right ascension
02h 03m 44s
True Declination
25° 34' 26"
Sunlit
Object was in daylight at epoch
Visualization orbit readout
Latitude
Unknown
Longitude
Unknown
Altitude
Unknown
Speed
Unknown
Apparent Right ascension
Unknown
Apparent Declination
Unknown
Sunlit
N/A
Visualization observer readout
Local Sidereal Time
13:10:00
Azimuth
Unknown
Elevation
Unknown
Doppler factor
Unknown
Orbital elements
Apogee altitude
1,063.778 km
Perigee altitude
629.167 km
Semi-major axis
7,224.609 km
Eccentricity
0.03008
Inclination
62.2048°
RAAN
225.5567°
Arg. of periapsis
294.7275°
True anomaly
215.97376°
Mean anomaly
218.0359°
Eccentric anomaly
216.99878°
Mean motion
3.53445 °/min
Orbital period
101.85 mins
BSTAR
0.0014147

Documentation

Showing up to 5 results
|